FW7989 Weather Reports


Display with metric or nautical units.
time (UTC)temp
F
wind
direction
speed
MPH
gust
MPH
rain 1hr
in
rain 24hr
in
rain mn
in
humidity
%
barometer
mb
20260905093558 66 5 6.0 11.0 0.00 0.00 0.00 61 1025.0
20260905093101 65 328 6.0 11.0 0.00 0.00 0.00 61 1025.0
20260905092601 65 352 6.0 11.0 0.00 0.00 0.00 64 1025.0
20260905092057 64 309 6.0 11.0 0.00 0.00 0.00 64 1024.9
20260905091614 64 327 5.0 11.0 0.00 0.00 0.00 63 1024.9
20260905091100 64 313 5.0 12.0 0.00 0.00 0.00 64 1024.7
20260905090601 64 327 7.0 12.0 0.00 0.00 0.00 62 1024.7
20260905085601 65 300 7.0 13.0 0.00 0.00 0.00 63 1024.5
20260905085059 65 314 6.0 13.0 0.00 0.00 0.00 64 1024.7
20260905084603 64 343 5.0 12.0 0.00 0.00 0.00 67 1024.5
20260905084058 64 322 7.0 12.0 0.00 0.00 0.00 67 1024.5
20260905083558 63 321 6.0 12.0 0.00 0.00 0.00 68 1024.4
20260905083124 63 336 7.0 12.0 0.00 0.00 0.00 68 1024.5
20260905082559 63 302 5.0 13.0 0.00 0.00 0.00 69 1024.4
20260905082059 63 305 6.0 13.0 0.00 0.00 0.00 69 1024.3
20260905081619 62 323 6.0 13.0 0.00 0.00 0.00 69 1024.3
20260905081100 62 334 6.0 13.0 0.00 0.00 0.00 70 1024.3
20260905080558 62 323 6.0 11.0 0.00 0.00 0.00 70 1024.3
20260905080104 62 338 5.0 9.0 0.00 0.00 0.00 71 1024.2
20260905075559 62 321 5.0 12.0 0.00 0.02 0.00 71 1024.1
20260905075059 62 346 5.0 12.0 0.00 0.02 0.00 70 1024.0
20260905074602 63 360 7.0 12.0 0.00 0.02 0.00 70 1024.0
20260905074058 63 300 6.0 12.0 0.00 0.02 0.00 70 1024.0
20260905073558 63 329 5.0 11.0 0.00 0.02 0.00 70 1024.0
20260905073101 62 288 5.0 11.0 0.00 0.02 0.00 71 1024.0
20260905072602 62 313 4.0 10.0 0.00 0.02 0.00 71 1023.9
20260905072101 62 315 4.0 9.0 0.00 0.02 0.00 72 1023.8
20260905071615 61 338 4.0 9.0 0.00 0.02 0.00 73 1023.8
20260905071059 61 298 4.0 10.0 0.00 0.02 0.00 73 1023.7
20260905070603 60 308 4.0 11.0 0.00 0.02 0.00 74 1023.7
20260905070107 60 352 4.0 11.0 0.00 0.02 0.00 74 1023.6
20260905065601 60 306 5.0 11.0 0.00 0.02 0.00 75 1023.6
20260905065058 60 291 3.0 13.0 0.00 0.02 0.00 75 1023.6
20260905064618 60 319 6.0 13.0 0.00 0.02 0.00 74 1023.5
20260905064058 60 321 5.0 12.0 0.00 0.02 0.00 75 1023.5
20260905063558 60 312 5.0 12.0 0.00 0.02 0.00 75 1023.4
20260905063129 60 317 7.0 11.0 0.00 0.02 0.00 75 1023.5
20260905062558 59 327 4.0 10.0 0.00 0.02 0.00 75 1023.4
20260905062057 59 323 5.0 12.0 0.00 0.02 0.00 75 1023.2
20260905061608 59 319 5.0 12.0 0.00 0.02 0.00 75 1023.2
20260905061059 59 313 4.0 10.0 0.00 0.02 0.00 76 1023.2
20260905060600 59 306 5.0 11.0 0.00 0.02 0.00 75 1023.3
20260905060107 59 295 5.0 11.0 0.00 0.02 0.00 75 1023.1
20260905055600 59 320 4.0 12.0 0.00 0.07 0.00 75 1023.2
20260905055101 59 321 4.0 12.0 0.00 0.07 0.00 75 1023.0
20260905054710 59 298 7.0 12.0 0.00 0.07 0.00 75 1023.0
20260905054058 59 336 5.0 10.0 0.00 0.07 0.00 76 1023.0
20260905053558 59 327 4.0 10.0 0.00 0.07 0.00 76 1023.0
20260905053101 59 313 4.0 10.0 0.00 0.07 0.00 76 1022.9
20260905052557 59 315 5.0 11.0 0.00 0.07 0.00 75 1022.8
20260905052059 59 352 5.0 11.0 0.00 0.07 0.00 75 1022.8
20260905051606 59 329 3.0 8.0 0.00 0.07 0.00 74 1022.8
20260905051057 59 325 3.0 9.0 0.00 0.07 0.00 73 1022.7
20260905050558 59 321 3.0 10.0 0.00 0.07 0.00 73 1022.6
20260905050107 59 288 4.0 10.0 0.00 0.07 0.00 73 1022.5
20260905045559 59 311 4.0 10.0 0.00 0.07 0.00 73 1022.6
20260905045058 59 310 6.0 10.0 0.00 0.07 0.00 75 1022.6
20260905044609 59 290 3.0 10.0 0.00 0.07 0.00 77 1022.6
20260905044058 59 298 4.0 10.0 0.00 0.07 0.00 77 1022.4
20260905043600 59 325 5.0 10.0 0.00 0.07 0.00 78 1022.3
20260905043106 59 318 4.0 12.0 0.00 0.07 0.00 77 1022.2
20260905042557 59 316 5.0 12.0 0.00 0.07 0.00 77 1022.2
20260905042058 59 313 6.0 14.0 0.00 0.07 0.00 77 1022.3
20260905041609 59 360 6.0 14.0 0.00 0.07 0.00 76 1022.2
20260905041057 59 311 7.0 14.0 0.00 0.07 0.00 76 1022.2
20260905040559 59 315 6.0 13.0 0.00 0.07 0.00 77 1022.1
20260905040112 59 324 5.0 12.0 0.00 0.07 0.00 77 1022.2
20260905035558 59 327 4.0 12.0 0.00 0.07 0.00 76 1022.1
20260905035058 59 302 6.0 12.0 0.00 0.07 0.00 76 1022.0
20260905034608 59 309 6.0 13.0 0.00 0.07 0.00 76 1022.0
20260905034100 59 306 5.0 13.0 0.00 0.07 0.00 76 1021.9
20260905033558 59 337 7.0 13.0 0.00 0.07 0.00 76 1021.9
20260905033105 59 329 7.0 13.0 0.00 0.07 0.00 77 1021.9
20260905032601 59 321 7.0 12.0 0.00 0.07 0.00 78 1021.7
20260905032100 59 307 5.0 11.0 0.00 0.07 0.00 79 1021.6
20260905031611 59 308 6.0 11.0 0.00 0.07 0.00 79 1021.7
20260905031058 59 298 5.0 11.0 0.00 0.07 0.00 79 1021.7
20260905030558 59 319 4.0 10.0 0.00 0.07 0.00 79 1021.7
20260905025558 59 325 6.0 11.0 0.00 0.07 0.00 79 1021.5
20260905025058 59 325 5.0 12.0 0.00 0.07 0.00 78 1021.5
20260905024615 60 319 6.0 12.0 0.00 0.07 0.00 78 1021.5
20260905024058 60 298 6.0 12.0 0.00 0.07 0.00 78 1021.6
20260905023601 60 298 6.0 11.0 0.00 0.07 0.00 79 1021.5
20260905023100 60 305 5.0 13.0 0.00 0.07 0.00 78 1021.5
20260905022600 60 334 7.0 13.0 0.00 0.07 0.00 78 1021.5
20260905022058 61 342 7.0 13.0 0.00 0.07 0.00 78 1021.5
20260905021610 61 335 6.0 14.0 0.00 0.07 0.00 78 1021.3
20260905021059 61 303 7.0 14.0 0.00 0.07 0.00 79 1021.4
20260905020601 61 311 5.0 13.0 0.00 0.07 0.00 80 1021.4
20260905015558 61 334 6.0 11.0 0.00 0.07 0.00 79 1021.2
20260905015058 61 285 6.0 11.0 0.00 0.07 0.00 78 1021.2
20260905014604 61 334 5.0 12.0 0.00 0.07 0.00 78 1021.0
20260905014058 61 327 6.0 12.0 0.00 0.07 0.00 78 1021.0
20260905013558 61 294 6.0 12.0 0.00 0.07 0.00 78 1021.1
20260905013104 61 296 5.0 13.0 0.00 0.07 0.00 77 1021.1
20260905012600 61 316 6.0 13.0 0.00 0.07 0.00 77 1021.0
20260905012058 61 294 5.0 10.0 0.00 0.07 0.00 78 1020.9
20260905011604 61 306 3.0 10.0 0.00 0.07 0.00 78 1020.9
20260905011100 61 316 5.0 10.0 0.00 0.07 0.00 78 1020.9
20260905010558 61 346 5.0 11.0 0.00 0.07 0.00 77 1020.9
20260905010110 61 295 6.0 11.0 0.00 0.07 0.00 77 1020.7
20260905005558 61 333 5.0 11.0 0.00 0.07 0.00 77 1021.0
20260905005058 62 317 4.0 13.0 0.00 0.07 0.00 77 1021.0
20260905004608 62 332 6.0 13.0 0.00 0.07 0.00 77 1020.8
20260905004058 62 295 7.0 14.0 0.00 0.07 0.00 76 1020.8
20260905003558 62 306 5.0 14.0 0.00 0.07 0.00 76 1020.9
20260905003102 62 325 6.0 13.0 0.00 0.07 0.00 76 1020.8
20260905002559 62 360 5.0 14.0 0.00 0.07 0.00 76 1020.9
20260905002101 62 309 6.0 14.0 0.00 0.07 0.00 76 1020.8
20260905001603 63 290 7.0 14.0 0.00 0.07 0.00 76 1020.7
20260905001058 63 288 6.0 12.0 0.00 0.07 0.00 76 1020.7
20260905000558 63 299 5.0 12.0 0.00 0.07 0.00 75 1020.6
20260905000109 63 294 6.0 11.0 0.00 0.07 0.00 75 1020.6
20260904235558 63 273 5.0 11.0 0.00 0.07 0.00 75 1020.6
20260904235100 63 319 5.0 14.0 0.00 0.07 0.00 76 1020.5
20260904234611 63 288 8.0 14.0 0.00 0.07 0.00 76 1020.5
20260904234100 63 281 5.0 15.0 0.00 0.07 0.00 75 1020.6
20260904233558 63 311 8.0 15.0 0.00 0.07 0.00 75 1020.5
20260904233107 63 360 5.0 9.0 0.00 0.07 0.00 76 1020.5
20260904232559 63 304 4.0 8.0 0.00 0.07 0.00 76 1020.5
20260904232058 63 306 4.0 13.0 0.00 0.07 0.00 76 1020.5
20260904231608 63 289 6.0 13.0 0.00 0.07 0.00 75 1020.5
20260904231058 63 315 6.0 13.0 0.00 0.07 0.00 75 1020.4
20260904230559 63 298 5.0 15.0 0.00 0.07 0.00 75 1020.5
20260904230113 63 360 6.0 17.0 0.00 0.07 0.00 75 1020.4
20260904225559 63 294 9.0 17.0 0.00 0.07 0.07 73 1020.4
20260904225059 63 302 10.0 16.0 0.00 0.07 0.07 74 1020.5
20260904224606 63 288 9.0 17.0 0.00 0.07 0.07 74 1020.4
20260904224101 63 305 9.0 17.0 0.00 0.07 0.07 73 1020.4
20260904223558 63 293 10.0 17.0 0.00 0.07 0.07 73 1020.3
20260904223104 63 274 9.0 17.0 0.00 0.07 0.07 73 1020.4
20260904222559 63 305 9.0 21.0 0.00 0.07 0.07 73 1020.4
20260904222057 63 296 10.0 21.0 0.00 0.07 0.07 73 1020.4
20260904221609 63 283 12.0 21.0 0.00 0.07 0.07 73 1020.4
20260904221057 63 352 11.0 16.0 0.00 0.07 0.07 73 1020.3
20260904220601 63 294 9.0 15.0 0.00 0.07 0.07 74 1020.4
20260904220109 63 308 9.0 14.0 0.00 0.07 0.07 73 1020.3
20260904215558 63 360 9.0 15.0 0.00 0.07 0.07 72 1020.2
20260904215058 63 360 9.0 17.0 0.00 0.07 0.07 73 1020.3
20260904214603 63 289 6.0 17.0 0.00 0.07 0.07 73 1020.2
20260904214101 63 294 9.0 18.0 0.00 0.07 0.07 74 1020.2
20260904213558 63 300 9.0 18.0 0.00 0.07 0.07 74 1020.1
20260904213104 63 303 9.0 17.0 0.00 0.07 0.07 74 1020.1
20260904212558 63 280 9.0 17.0 0.00 0.07 0.07 73 1020.1
20260904212058 63 286 8.0 15.0 0.00 0.07 0.07 73 1020.0
20260904211607 63 292 10.0 18.0 0.00 0.07 0.07 72 1019.9
20260904211057 63 276 8.0 20.0 0.00 0.07 0.07 74 1020.0
20260904210558 63 249 10.0 20.0 0.00 0.07 0.07 73 1019.8
20260904210105 63 284 10.0 20.0 0.00 0.07 0.07 72 1019.8
20260904205559 63 330 10.0 18.0 0.00 0.07 0.07 73 1019.8
20260904205058 62 295 9.0 17.0 0.00 0.07 0.07 73 1019.7
20260904204609 62 298 10.0 17.0 0.00 0.07 0.07 73 1019.6
20260904204058 62 298 10.0 18.0 0.00 0.07 0.07 72 1019.6
20260904203559 63 282 11.0 18.0 0.00 0.07 0.07 73 1019.5
20260904203102 63 284 10.0 18.0 0.00 0.07 0.07 73 1019.7
20260904202558 63 298 9.0 18.0 0.00 0.07 0.07 74 1019.6
20260904202057 63 278 10.0 16.0 0.00 0.07 0.07 74 1019.6
20260904201603 63 294 10.0 16.0 0.00 0.07 0.07 74 1019.6
20260904201058 63 257 10.0 19.0 0.00 0.07 0.07 73 1019.5
20260904200600 63 314 8.0 19.0 0.00 0.07 0.07 74 1019.4
20260904200116 62 350 10.0 19.0 0.00 0.07 0.07 73 1019.4
20260904195558 62 253 10.0 17.0 0.00 0.07 0.07 73 1019.4
20260904195057 63 292 9.0 17.0 0.00 0.07 0.07 74 1019.4
20260904194609 62 302 8.0 17.0 0.00 0.07 0.07 74 1019.3
20260904194058 62 301 10.0 16.0 0.00 0.07 0.07 73 1019.3
20260904193603 63 255 10.0 16.0 0.00 0.07 0.07 74 1019.4
20260904193101 63 272 8.0 16.0 0.00 0.07 0.07 74 1019.2
20260904192557 63 293 10.0 21.0 0.00 0.07 0.07 73 1019.2
20260904192057 63 311 11.0 21.0 0.00 0.07 0.07 74 1019.1
20260904191603 63 277 12.0 19.0 0.00 0.07 0.07 74 1019.0
20260904191058 63 298 10.0 21.0 0.00 0.07 0.07 72 1019.1
20260904190558 63 294 10.0 22.0 0.00 0.07 0.07 72 1019.1
20260904190110 63 254 12.0 22.0 0.00 0.07 0.07 73 1019.0
20260904185557 63 279 12.0 22.0 0.00 0.07 0.07 73 1019.0
20260904185057 63 295 10.0 15.0 0.00 0.07 0.07 74 1018.9
20260904184626 63 360 10.0 19.0 0.00 0.07 0.07 73 1018.9
20260904184058 63 279 11.0 19.0 0.00 0.07 0.07 72 1018.9
20260904183558 63 309 12.0 19.0 0.00 0.07 0.07 72 1019.1
20260904183101 63 350 11.0 24.0 0.00 0.07 0.07 71 1019.0
20260904182600 64 296 14.0 24.0 0.00 0.07 0.07 71 1018.9
20260904182057 64 290 10.0 16.0 0.00 0.07 0.07 71 1018.8
20260904181607 64 360 7.0 21.0 0.00 0.07 0.07 73 1018.7
20260904181100 64 261 9.0 21.0 0.00 0.07 0.07 72 1018.7
20260904180601 65 304 14.0 21.0 0.00 0.07 0.07 71 1018.7
20260904180109 65 269 11.0 20.0 0.00 0.07 0.07 71 1018.7
20260904175600 65 236 9.0 17.0 0.00 0.07 0.07 71 1018.6
20260904175100 65 310 10.0 19.0 0.00 0.07 0.07 70 1018.6
20260904174608 65 295 9.0 19.0 0.00 0.07 0.07 71 1018.5
20260904174056 64 302 12.0 19.0 0.00 0.07 0.07 71 1018.3
20260904173558 64 268 10.0 17.0 0.00 0.07 0.07 73 1018.3
20260904173109 64 268 11.0 17.0 0.00 0.07 0.07 72 1018.4
20260904172601 64 292 10.0 18.0 0.00 0.07 0.07 71 1018.5
20260904172059 64 290 9.0 18.0 0.00 0.07 0.07 73 1018.5
20260904171608 64 288 9.0 18.0 0.00 0.07 0.07 72 1018.6
20260904171058 64 263 7.0 23.0 0.00 0.07 0.07 72 1018.4
20260904170600 64 262 6.0 24.0 0.00 0.07 0.07 70 1018.2
20260904170110 64 322 12.0 24.0 0.00 0.07 0.07 71 1018.3
20260904165557 64 275 11.0 24.0 0.00 0.07 0.07 71 1018.2
20260904165058 64 287 11.0 24.0 0.00 0.07 0.07 72 1018.3
20260904164607 64 329 10.0 18.0 0.00 0.07 0.07 71 1018.3
20260904164102 64 319 10.0 22.0 0.00 0.07 0.07 71 1018.1
20260904163558 64 251 9.0 22.0 0.00 0.07 0.07 70 1018.1
20260904163102 64 281 10.0 20.0 0.00 0.07 0.07 71 1017.9
20260904162558 64 314 11.0 20.0 0.00 0.07 0.07 72 1017.9
20260904162058 64 269 8.0 20.0 0.00 0.07 0.07 72 1018.0
20260904161613 64 296 8.0 20.0 0.00 0.07 0.07 71 1017.9
20260904161100 64 265 10.0 18.0 0.00 0.07 0.07 71 1018.0
20260904160600 64 275 10.0 19.0 0.00 0.07 0.07 72 1017.9
20260904160107 64 297 11.0 19.0 0.00 0.07 0.07 70 1017.8
20260904155559 64 293 11.0 18.0 0.00 0.07 0.07 71 1018.0
20260904155100 64 283 10.0 21.0 0.00 0.07 0.07 71 1017.9
20260904154620 64 303 12.0 21.0 0.00 0.07 0.07 72 1017.9
20260904154058 65 295 10.0 20.0 0.00 0.07 0.07 72 1017.8
20260904153559 65 273 12.0 20.0 0.00 0.07 0.07 69 1017.8
20260904153108 65 277 10.0 19.0 0.00 0.07 0.07 70 1017.8
20260904152557 65 293 12.0 20.0 0.00 0.07 0.07 70 1017.8
20260904152059 65 257 12.0 24.0 0.00 0.07 0.07 70 1017.8
20260904151608 65 288 14.0 24.0 0.00 0.07 0.07 70 1017.8
20260904151100 65 299 10.0 20.0 0.00 0.07 0.07 71 1017.8
20260904150604 65 255 11.0 20.0 0.00 0.07 0.07 70 1017.6
20260904145557 65 329 11.0 20.0 0.00 0.07 0.07 71 1017.8
20260904145058 65 272 11.0 20.0 0.00 0.07 0.07 71 1017.6
20260904144603 65 271 12.0 21.0 0.00 0.07 0.07 69 1017.8
20260904144100 65 311 13.0 21.0 0.00 0.07 0.07 70 1017.7
20260904143601 65 303 12.0 21.0 0.00 0.07 0.07 70 1017.5
20260904143107 65 246 10.0 20.0 0.00 0.07 0.07 71 1017.4
20260904142558 65 268 13.0 20.0 0.00 0.07 0.07 68 1017.4
20260904142058 66 290 12.0 20.0 0.00 0.07 0.07 69 1017.5
20260904141605 66 348 13.0 23.0 0.00 0.07 0.07 68 1017.4
20260904141100 66 295 14.0 23.0 0.00 0.07 0.07 71 1017.3
20260904140600 66 258 10.0 20.0 0.00 0.07 0.07 70 1017.2
20260904140111 66 269 13.0 23.0 0.00 0.07 0.07 68 1017.1
20260904135559 66 289 12.0 23.0 0.00 0.07 0.07 70 1017.1
20260904135059 66 288 10.0 23.0 0.00 0.07 0.07 70 1017.0
20260904134616 65 278 12.0 21.0 0.00 0.07 0.07 68 1017.0
20260904134103 65 264 11.0 22.0 0.00 0.07 0.07 69 1016.9
20260904133600 65 295 11.0 22.0 0.00 0.07 0.07 69 1017.0
20260904133106 66 290 12.0 23.0 0.00 0.07 0.07 70 1017.0
20260904132557 66 284 12.0 23.0 0.00 0.07 0.07 69 1016.9
20260904132059 66 307 12.0 24.0 0.00 0.07 0.07 69 1016.9
20260904131605 65 317 15.0 25.0 0.00 0.07 0.07 68 1016.8
20260904131058 65 306 13.0 25.0 0.00 0.07 0.07 68 1016.8
20260904130559 65 271 11.0 22.0 0.00 0.07 0.07 72 1016.8
20260904130106 65 300 13.0 22.0 0.00 0.07 0.07 73 1016.7
20260904125559 66 308 10.0 24.0 0.00 0.07 0.07 72 1016.7
20260904125100 65 287 11.0 24.0 0.00 0.07 0.07 71 1016.7
20260904124617 65 304 15.0 24.0 0.00 0.07 0.07 71 1016.7
20260904124101 65 279 14.0 22.0 0.00 0.07 0.07 71 1016.6
20260904123600 65 296 13.0 21.0 0.00 0.07 0.07 70 1016.5
20260904123116 65 275 13.0 21.0 0.00 0.07 0.07 70 1016.6
20260904122559 65 295 13.0 21.0 0.00 0.07 0.07 69 1016.5
20260904122059 65 271 12.0 22.0 0.00 0.07 0.07 70 1016.6
20260904121607 65 267 11.0 22.0 0.00 0.07 0.07 69 1016.4
20260904121103 65 285 11.0 20.0 0.00 0.07 0.07 69 1016.3
20260904120559 65 265 11.0 25.0 0.00 0.07 0.07 70 1016.4
20260904120109 65 284 11.0 25.0 0.00 0.07 0.07 70 1016.2
20260904115602 65 285 14.0 23.0 0.00 0.07 0.07 70 1016.2
20260904115102 65 325 11.0 22.0 0.00 0.07 0.07 71 1016.1
20260904114606 65 302 10.0 22.0 0.00 0.07 0.07 70 1016.0
20260904114100 65 286 12.0 23.0 0.00 0.07 0.07 69 1016.2
20260904113559 65 275 13.0 23.0 0.00 0.07 0.07 69 1016.1
20260904113104 65 300 11.0 23.0 0.00 0.07 0.07 71 1015.9
20260904112559 65 295 14.0 24.0 0.00 0.07 0.07 72 1015.8
20260904112059 65 304 13.0 24.0 0.00 0.07 0.07 71 1015.9
20260904111609 65 290 13.0 25.0 0.00 0.07 0.07 70 1015.9
20260904111104 65 265 14.0 25.0 0.00 0.07 0.07 71 1015.8
20260904110600 65 273 11.0 23.0 0.00 0.07 0.07 70 1015.5
20260904110117 65 276 12.0 22.0 0.00 0.07 0.07 69 1015.4
20260904105601 65 296 14.0 26.0 0.00 0.07 0.07 71 1015.7
20260904105101 65 264 9.0 26.0 0.00 0.07 0.07 72 1015.5
20260904104608 65 309 11.0 19.0 0.00 0.07 0.07 72 1015.5
20260904104100 65 279 12.0 19.0 0.00 0.07 0.07 73 1015.3
20260904103600 65 267 11.0 20.0 0.00 0.07 0.07 73 1015.1
20260904103107 65 288 11.0 21.0 0.00 0.07 0.07 75 1014.9
20260904102602 65 287 12.0 23.0 0.00 0.07 0.07 75 1015.1
20260904102100 65 294 12.0 23.0 0.00 0.07 0.07 76 1015.2
20260904101609 66 265 12.0 23.0 0.00 0.07 0.07 77 1015.1
20260904101058 66 257 9.0 17.0 0.00 0.07 0.07 79 1015.2
20260904100600 66 319 11.0 21.0 0.00 0.07 0.07 78 1015.0
20260904100109 65 289 9.0 21.0 0.00 0.07 0.07 82 1014.9
20260904095557 65 289 10.0 21.0 0.00 0.07 0.07 81 1014.8
20260904095058 65 278 10.0 18.0 0.00 0.07 0.07 79 1014.9
20260904094615 65 288 11.0 18.0 0.00 0.07 0.07 81 1014.9
20260904094101 65 207 8.0 19.0 0.00 0.07 0.07 84 1015.0